Tracking 19709 objects as of 19-Jun-2019
HD Live streaming from Space Station
objects crossing your sky now

SL-8 DEB

Track SL-8 DEB now!
10-day predictions


NORAD ID: 25085
Int'l Code: 1991-009CX
Perigee: 1,445.4 km
Apogee: 1,727.4 km
Inclination: 74.1 °
Period: 117.7 minutes
Semi major axis: 7957 km
RCS: 0.0159 m2 (small)
Launch date: February 12, 1991
Source: Commonwealth of Independent States (former USSR) (CIS)
Launch site: PLESETSK MISSILE AND SPACE COMPLEX (PKMTR)

Note: This is SATELLITE DEBRIS
aabbcc
Your satellite tracking list
Your tracking list is empty




NASA's NSSDC Master Catalog

Two Line Element Set (TLE):
1 25085U 91009CX  19166.03028868 +.00000147 +00000-0 +14343-2 0  9996
2 25085 074.1100 191.7238 0177231 203.6115 182.8136 12.23053552098010
Source of the keplerian elements: AFSPC